Regional Weather Roundup
Issued by NWS Upton, NY

Current Version | Previous Version | Graphics & Text | Print | Product List | Glossary Off
Versions: 1 2 3 4 5 6 7 8 9 10 11 12 13 14 15 16 17 18 19 20 21 22 23 24 25 26 27 28 29 30 31 32 33 34 35 36 37 38 39 40 41 42 43 44 45 46 47 48 49 50

000
ASUS41 KOKX 240605
RWROKX

REGIONAL WEATHER ROUNDUP
NATIONAL WEATHER SERVICE NEW YORK NY
200 AM EDT THU JUL 24 2014

NOTE: "FAIR" INDICATES FEW OR NO CLOUDS BELOW 12,000 FEET WITH NO
SIGNIFICANT WEATHER AND/OR OBSTRUCTIONS TO VISIBILITY.

NYZ071-072-176-178-NJZ106-104-240700-
NEW YORK CITY METRO AREA


CITY           SKY/WX    TMP DP  RH WIND       PRES   REMARKS
CENTRAL PARK   MOCLDY    74  68  81 CALM      29.83S
LAGUARDIA APRT MOCLDY    75  68  78 NW6       29.79R
KENNEDY INTL   CLOUDY    77  70  79 NW9       29.80S
NEWARK/LIBERTY MOCLDY    75  70  84 W6        29.82R
BRNX BOT. GARD   N/A     73  68  83 N3        29.81S
TETERBORO      PTCLDY    76  67  73 NW7       29.80R
$$

NYZ177-179-078>081-240700-
LONG ISLAND NEW YORK

CITY           SKY/WX    TMP DP  RH WIND       PRES   REMARKS
FARMINGDALE    CLOUDY    75  70  84 NW5       29.80R
ISLIP          CLOUDY    75  70  84 W3        29.78R
SHIRLEY        CLOUDY    73  70  90 CALM      29.80R
WESTHAMPTON    MOCLDY    72  70  93 CALM      29.79F
MONTAUK POINT    N/A     72  69  90 CALM      29.79F
$$

NYZ052-065-067-240700-
HUDSON VALLEY

CITY           SKY/WX    TMP DP  RH WIND       PRES   REMARKS
WHITE PLAINS   MOCLDY    72  69  90 NW9       29.80F
NEWBURGH       CLOUDY    70  70 100 VRB5      29.83F
MONTGOMERY     MOCLDY    70  65  84 NW6       29.82F
POUGHKEEPSIE   CLOUDY    72  68  87 CALM      29.80F
ALBANY         CLOUDY    69  66  90 NW7       29.84F
$$

NJZ001-105-106-008-010-013-015-019>022-104-240700-
NEW JERSEY

CITY           SKY/WX    TMP DP  RH WIND       PRES   REMARKS
NEWARK/LIBERTY MOCLDY    75  70  84 W6        29.82R
TETERBORO      PTCLDY    76  67  73 NW7       29.80R
CALDWELL       PTCLDY    73  65  75 CALM      29.83R
MORRISTOWN     CLEAR     73  66  78 NW5       29.82S
SOMERVILLE     PTCLDY    69  67  93 CALM      29.83R
LINDEN         CLOUDY    75  71  86 NW7       29.84R
SUSSEX         PTCLDY    72  64  76 NW7       29.84F
ANDOVER          N/A     69  64  84 VRB3      29.86S
TRENTON        MOCLDY    72  70  93 W5        29.84S FOG
MILLVILLE      MOCLDY    72  70  93 NW6       29.83F
ATLANTIC CITY  CLOUDY    72  68  87 N6        29.83F
WRIGHTSTOWN    PTCLDY    72  71  95 NW6       29.82S
TOMS RIVER     PTCLDY    73  70  88 NW7       29.83S
BELMAR         PTCLDY    73  66  78 NW10      29.82S
$$

PAZ047>061-062-071-240700-
EASTERN PENNSYLVANIA

CITY           SKY/WX    TMP DP  RH WIND       PRES   REMARKS
PHILADELPHIA   CLOUDY    75  67  76 N3        29.86R
ALLENTOWN      CLEAR     69  64  84 W5        29.86F
SCRANTON       CLOUDY    68  61  78 N7        29.90F
$$

CTZ002-004>006-009-010-012-RIZ004-006-007-MAZ004-011-015-240700-
SOUTHERN NEW ENGLAND
 IN CT

CITY           SKY/WX    TMP DP  RH WIND       PRES   REMARKS
BRADLEY INTL   DRIZZLE   72  69  90 CALM      29.77S
HARTFORD       MOCLDY    72  69  90 CALM      29.77F
DANBURY        MOCLDY    70  67  90 CALM      29.82F
WTRBRY/OXFORD  MOCLDY    70  64  83 N7        29.83F
BRIDGEPORT     MOCLDY    73  70  90 N3        29.78S
MERIDEN        MOCLDY    70  68  93 CALM      29.78F
NEW HAVEN      MOCLDY    73  69  87 CALM      29.79S
CHESTER        FAIR      70  68  94 CALM      29.80S
GROTON         MOCLDY    70  68  93 CALM      29.76F
WILLIMANTIC    MOCLDY    71  69  93 CALM      29.78F

 IN RI

CITY           SKY/WX    TMP DP  RH WIND       PRES   REMARKS
PROVIDENCE     MOCLDY    71  66  84 CALM      29.77S
BLOCK ISLAND   PTCLDY    70  66  88 W12       29.78S
WESTERLY       PTCLDY    71  68  90 W5        29.78F

 IN MA

CITY           SKY/WX    TMP DP  RH WIND       PRES   REMARKS
BOSTON         CLOUDY    73  67  81 NW5       29.76R
WORCESTER      CLOUDY    68  67  96 W12       29.80S
WESTFIELD      LGT RAIN  72  67  84 NW7       29.77F
PROVINCETOWN   CLOUDY    70  70 100 SW10      29.74F
NANTUCKET      FOG       68  67  96 S8        29.77F VSB 1/2
$$

ANZ330-335-338-340-345-350-353-355-240700-
COASTAL MARINE OBSERVATIONS


STATION/POSITION TIME  SKY/WX   TEMP    WIND        PRES    VSBY  WAVE
                                AIR SEA DIR/SP/G                  HT/PER
                 (UTC)          (F)     (DEG/KT/KT) (MB)    (MI)  (FT/S)
NY HARB ENTRANCE NOT AVBL
4S FIRE IS       NOT AVBL
23SW MTP         0600            71 70              1007.6          3/ 5
HUDSON CANYON    0600            75 74  230/ 14/ 16 1008.8          3/ 4
EXECUTION ROCKS  0600            74 71  330/  8/ 10   N/A
WESTERN LI SOUND 0500            75     330/  6/  8   N/A           0
CENTRAL LI SOUND 0500            73 73  350/  4/  6   N/A           1/ 3
EASTERN LI SOUND 0500            69 67  260/  8/ 12   N/A
ROBBINS REEF     0500            76     310/  9/ 13   N/A
$$


>>>>>>>>>>>>>>>>>>>>>>>>>>>> KEY <<<<<<<<<<<<<<<<<<<<<<<<<<<
>                                                          <
>     SKY/WX - SKY CONDITION/PRESENT WEATHER               <
>     TMP    - TEMPERATURE IN FAHRENHEIT                   <
>     DP     - DEWPOINT IN FAHRENHEIT                      <
>     RH     - RELATIVE HUMIDITY IN PERCENT                <
>     WIND   - DIRECTION AND SPEED IN MPH                  <
>     PRES   - MEAN SEA LEVEL PRESSURE IN INCHES OF HG     <
>     WCI    - WIND CHILL INDEX                            <
>     VSB    - VISIBILITY IN MILES                         <
>     HX     - HEAT INDEX                                  <
>     TC     - TEMPERATURE IN CELSIUS                      <
>     VRB    - VARIABLE WIND DIRECTION                     <
>                                                          <
>>>>>>>>>>>>>>>>>>>>>>>>>>>> KEY <<<<<<<<<<<<<<<<<<<<<<<<<<<




USA.gov is the U.S. government's official web portal to all federal, state and local government web resources and services.